DECAYED

CZ-6A DEB, 54559 (Decayed)

Orbit data source: Space-Track

CZ-6A DEB, 54559 was space debris in SSO originally from a launch on Fri, 11 Nov 2022 UTC launched from the Taiyaun Space Center, China (TSC). Debris objects in space refer to the collection of defunct objects orbiting the Earth. Examples of debris include non-operational satellites, rocket bodies, and fragments generated from explosions, collisions, or faulty payload assembly.

Not visible in the next 10 days
Identifier
54559, 2022-151LK
Orbit
Decayed
Country
Flag of CNCN / PRC
Related business
Manufacturer
SAST
Mission
Decayed spacecraft
Bus & Motor
Unknown
Mass
Unknown
Launch date (UTC)
2022-11-11 (4 years ago)
Launch vehicle
Unknown
Launch site
Taiyaun Space Center, China (TSC)
Object type
Payload
Rocket body
Debris
Shape & HBR
Unknown shape, 0.1 m
Radar Cross Section
Medium (>0.1 m² and <1 m²)

Expand to show TLE details & history
Last TLE update: 9 months ago

TLE from 9 months ago
0 CZ-6A DEB
1 54559U 22151LK  25336.29998814  .03981145  35485-1  57477-2 0  9997
2 54559  98.5135 100.9076 0017522 285.0426  74.8914 16.09777499166339
Epoch: 2025-12-02T07:11Z
TLE epoch observation values (Epoch: 2025-12-02T07:11:58.975Z)
Latitude
-0.00007°
Longitude
-78.47524°
Altitude
247.622 km
Speed
7.76 km/s
True Right ascension
06h 43m 37s
True Declination
0° 00' 00"
Sunlit
Object was in full shadow at epoch
Visualization orbit readout
Latitude
Unknown
Longitude
Unknown
Altitude
Unknown
Speed
Unknown
Apparent Right ascension
Unknown
Apparent Declination
Unknown
Sunlit
N/A
Visualization observer readout
Local Sidereal Time
15:28:05
Azimuth
Unknown
Elevation
Unknown
Doppler factor
Unknown
Orbital elements
Apogee altitude
255.958 km
Perigee altitude
232.75 km
Semi-major axis
6,622.491 km
Eccentricity
0.00175
Inclination
98.5135°
RAAN
100.9076°
Arg. of periapsis
285.0426°
True anomaly
75.08536°
Mean anomaly
74.8914°
Eccentric anomaly
74.98837°
Mean motion
4.02727 °/min
Orbital period
89.39 mins
BSTAR
0.0057477
Loading maneuver chart data...
Computing Atmospheric mass density...
Loading historical data...
Loading historical data...
Loading historical data...
Loading historical data...
Loading historical data...
Loading historical data...
Loading historical data...

Documentation

Showing up to 5 results
|